Weather History for KMDW - November, 2012

Change the Weather History Date:

Saturday, November 3, 2012

  Actual Average Record
Temperature  
Mean Temperature 42 °F 48 °F  
Max Temperature 45 °F 55 °F 76 °F (1987)
Min Temperature 38 °F 40 °F 11 °F (1951)
Degree Days  
Heating Degree Days 23 18  
Month to date heating degree days 66 52  
Since 1 July heating degree days 508 483  
Cooling Degree Days 0 0  
Month to date cooling degree days 0 0  
Year to date cooling degree days 1473 1045  
Moisture  
Dew Point 33 °F    
Average Humidity 66    
Maximum Humidity 76    
Minimum Humidity 54    
Precipitation  
Precipitation 0.00 in 0.11 in 1.72 in (1946)
Month to date precipitation 0.00 0.34  
Year to date precipitation 23.78 33.44  
Sea Level Pressure  
Sea Level Pressure 30.20 in    
Wind  
Wind Speed 8 mph (NE)    
Max Wind Speed 15 mph    
Max Gust Speed 18 mph    
Visibility 10 miles    
Events      
T = Trace of Precipitation, MM = Missing Value Source: NWS Daily Summary

Daily Weather History Graph

Daily Weather History Graph

Search for Another Location

Airport or City:

Trip Planner

Search our weather history database for the weather conditions in past years. The results will help you decide how hot, cold, wet, or windy it might be!

Date:

Astronomy

Nov. 03, 2012 Rise Set
Actual Time 7:26 AM CDT 5:42 PM CDT
Civil Twilight 6:57 AM CDT 6:11 PM CDT
Nautical Twilight 6:24 AM CDT 6:44 PM CDT
Astronomical Twilight 5:51 AM CDT 7:16 PM CDT
Moon 9:21 PM CDT (11/3) 11:31 AM CDT (11/3)
Length of Visible Light 11h 14m
Length of Day
10h 15m
Waning Gibbous, 80% of the Moon is Illuminated
Nov 3
Waning Gibbous
Nov 6
Last Quarter
Nov 13
New
Nov 20
First Quarter
Nov 28
Full

Hourly Weather History & Observations

Time (CDT) Temp. Windchill Dew Point Humidity Pressure Visibility Wind Dir Wind Speed Gust Speed Precip Events Conditions
12:51 AM 44.1 °F 41.5 °F 30.0 °F 58% 30.19 in 10.0 mi North 4.6 mph - N/A   Overcast
1:13 AM 42.8 °F 39.3 °F 30.2 °F 61% 30.17 in 10.0 mi NE 5.8 mph - N/A   Overcast
1:51 AM 44.1 °F 39.0 °F 30.0 °F 58% 30.18 in 10.0 mi NNE 9.2 mph - N/A   Mostly Cloudy
2:51 AM 43.0 °F 38.2 °F 28.9 °F 58% 30.18 in 10.0 mi East 8.1 mph - N/A   Mostly Cloudy
3:51 AM 43.0 °F 37.2 °F 28.9 °F 58% 30.15 in 10.0 mi ENE 10.4 mph - N/A   Mostly Cloudy
4:42 AM 42.8 °F 36.2 °F 32.0 °F 66% 30.13 in 10.0 mi ENE 12.7 mph - N/A   Mostly Cloudy
4:51 AM 43.0 °F 36.0 °F 32.0 °F 65% 30.15 in 10.0 mi ENE 13.8 mph - N/A   Mostly Cloudy
5:08 AM 42.8 °F 37.0 °F 33.8 °F 70% 30.14 in 10.0 mi ENE 10.4 mph - N/A   Mostly Cloudy
5:51 AM 43.0 °F 38.2 °F 33.1 °F 68% 30.18 in 10.0 mi ENE 8.1 mph - N/A   Mostly Cloudy
5:58 AM 42.8 °F 38.6 °F 33.8 °F 70% 30.17 in 10.0 mi East 6.9 mph - N/A   Overcast
6:51 AM 43.0 °F 36.8 °F 33.1 °F 68% 30.19 in 10.0 mi East 11.5 mph - N/A   Overcast
7:51 AM 43.0 °F 37.2 °F 33.1 °F 68% 30.20 in 10.0 mi East 10.4 mph - N/A   Overcast
8:51 AM 43.0 °F 37.2 °F 32.0 °F 65% 30.22 in 10.0 mi ENE 10.4 mph - N/A   Overcast
9:51 AM 42.1 °F 37.1 °F 33.1 °F 70% 30.23 in 10.0 mi East 8.1 mph - N/A   Overcast
10:51 AM 43.0 °F 38.2 °F 33.1 °F 68% 30.23 in 10.0 mi SE 8.1 mph - N/A   Overcast
11:51 AM 43.0 °F 37.7 °F 33.1 °F 68% 30.23 in 10.0 mi East 9.2 mph - N/A   Overcast
12:27 PM 42.8 °F 39.3 °F 33.8 °F 70% 30.21 in 10.0 mi East 5.8 mph - N/A   Overcast
12:51 PM 43.0 °F 38.8 °F 33.1 °F 68% 30.21 in 10.0 mi East 6.9 mph - N/A   Overcast
1:51 PM 44.1 °F 39.0 °F 32.0 °F 63% 30.20 in 10.0 mi ENE 9.2 mph - N/A   Overcast
2:51 PM 45.0 °F 41.8 °F 32.0 °F 60% 30.19 in 10.0 mi Variable 5.8 mph - N/A   Overcast
3:51 PM 44.1 °F 39.5 °F 33.1 °F 65% 30.20 in 10.0 mi ENE 8.1 mph - N/A   Overcast
4:17 PM 44.6 °F 41.4 °F 33.8 °F 66% 30.19 in 10.0 mi NE 5.8 mph - N/A   Overcast
4:51 PM 43.0 °F 38.8 °F 33.1 °F 68% 30.20 in 10.0 mi ENE 6.9 mph - N/A   Overcast
5:51 PM 43.0 °F 39.5 °F 33.1 °F 68% 30.20 in 10.0 mi NNE 5.8 mph - N/A   Overcast
6:51 PM 43.0 °F 37.7 °F 32.0 °F 65% 30.22 in 10.0 mi North 9.2 mph - N/A   Overcast
7:30 PM 42.8 °F 39.3 °F 35.6 °F 76% 30.21 in 10.0 mi NNW 5.8 mph - N/A   Overcast
7:51 PM 43.0 °F 39.5 °F 35.1 °F 74% 30.23 in 10.0 mi NNW 5.8 mph - N/A   Overcast
8:15 PM 42.8 °F 38.0 °F 35.6 °F 76% 30.20 in 10.0 mi NNW 8.1 mph - N/A   Overcast
8:51 PM 43.0 °F 37.7 °F 35.1 °F 74% 30.22 in 10.0 mi North 9.2 mph - N/A   Overcast
9:30 PM 42.8 °F 38.6 °F 33.8 °F 70% 30.20 in 10.0 mi NNW 6.9 mph - N/A   Overcast
9:51 PM 43.0 °F 38.2 °F 32.0 °F 65% 30.22 in 10.0 mi NNW 8.1 mph - N/A   Overcast
10:07 PM 42.8 °F 38.0 °F 30.2 °F 61% 30.20 in 10.0 mi NNW 8.1 mph - N/A   Overcast
10:51 PM 41.0 °F 37.1 °F 30.9 °F 67% 30.22 in 10.0 mi NNW 5.8 mph - N/A   Scattered Clouds
11:51 PM 39.9 °F 35.8 °F 30.9 °F 70% 30.22 in 10.0 mi NNW 5.8 mph - N/A   Mostly Cloudy